SCP
-0 -0 -0 -0 -0 -0 -0 -0 0 0 -0 -0 -0 -0 -0 -0 -0 0 0 0 0 0 -0 -0 -0 -0 -0 -0 -0 -0 -0 0 0 -0 0 0 -0 0 0 0 -0 -0 -0 -0 -0
-0 -0 -0 -0 -0 -0 -0 -0 0 -0 -0 0 0 0 0 -0 -0 -0 0 0 0 0 0 -0 -0 -0 0 -0 -0 -0 -0 0 -0 -0 0 0 0 -0 -0 0 0 -0 -0 -0 -0
0 0 0 0 0 0 0 0 -0 -0 -0 -0 -0 0 0 0 0 0 0 0 0 0 0 0 -0 -0 -0 -0 0 0 -0 -0 -0 -0 0 -0 -0 0 -0 -0 -0 -0 -0 -0 -0
0 0 0 0 0 0 0 0 0 0 0 0 0 0 0 0 0 0 0 0 0 0 0 0 0 -0 -0 0 0 0 0 -0 -0 -0 -0 0 0 -0 -0 0 0 -0 -0 -0 -0
0 0 0 0 0 -0 0 0 -0 -0 -0 -0 0 0 0 0 0 0 0 0 0 0 0 0 0 0 0 0 0 0 0 -0 -0 -0 -0 0 0 0 -0 0 0 -0 0 -0 -0
0 0 0 0 -0 0 -0 -0 -0 -0 -0 -0 -0 -0 0 0 0 0 0 0 0 0 0 0 0 0 0 0 0 0 0 -0 -0 -0 -0 0 0 0 0 0 -0 -0 0 0 -0
-0 0 0 0 0 -0 0 -0 -0 -0 -0 -0 -0 -0 0 0 0 0 0 0 0 0 0 0 0 0 0 0 0 0 0 0 0 -0 0 0 0 0 0 -0 0 0 0 0 -0
-0 -0 -0 0 0 -0 0 0 -0 -0 -0 -0 -0 -0 0 0 -0 -0 0 0 0 0 0 0 0 0 0 0 0 0 0 -0 0 0 0 0 -0 0 0 -0 0 0 0 0 0
0 -0 -0 0 -0 0 0 -0 -0 0 -0 -0 -0 -0 0 0 0 0 -0 0 0 0 0 0 0 0 0 -0 -0 0 0 0 0 0 0 0 -0 0 -0 0 0 -0 0 0 0
-0 0 -0 -0 -0 -0 -0 -0 0 0 0 0 -0 -0 0 0 0 0 0 0 0 0 0 -0 0 0 0 -0 -0 0 0 0 0 -0 0 -0 0 0 0 0 -0 0 -0 0 0
-0 0 -0 -0 -0 -0 0 0 -0 0 0 -0 -0 -0 0 -0 0 0 -0 0 0 0 0 -0 0 0 0 0 0 0 0 0 0 -0 -0 0 0 -0 -0 -0 -0 -0 0 -0 -0
-0 -0 -0 -0 -0 -0 -0 -0 -0 -0 -0 -0 -0 -0 -0 -0 -0 -0 -0 -0 -0 0 0 0 -0 0 0 0 0 0 0 0 -0 -0 -0 -0 -0 -0 -0 0 0 -0 -0 -0 0
-0 -0 -0 -0 -0 -0 -0 -0 0 -0 -0 -0 -0 -0 -0 -0 -0 -0 0 -0 -0 0 -0 -0 0 0 0 0 0 0 0 -0 -0 -0 -0 -0 -0 -0 0 0 0 0 0 -0 -0
-0 -0 -0 -0 -0 -0 -0 -0 -0 0 -0 0 0 0 -0 -0 0 -0 -0 -0 -0 -0 -0 -0 0 0 0 0 0 0 0 -0 -0 -0 0 -0 -0 0 0 0 0 -0 -0 -0 -0
-0 -0 -0 -0 -0 -0 -0 -0 0 0 0 0 0 0 -0 -0 -0 -0 -0 -0 -0 0 -0 0 0 0 0 0 0 0 0 -0 -0 -0 -0 -0 -0 -0 0 -0 -0 -0 -0 0 -0
-0 -0 -0 -0 -0 -0 -0 -0 -0 0 0 0 -0 0 0 -0 -0 -0 -0 -0 -0 -0 -0 0 0 0 0 0 0 0 0 0 -0 -0 -0 -0 -0 -0 -0 -0 -0 -0 -0 0 0
0 -0 -0 -0 -0 -0 -0 -0 0 0 0 0 0 -0 -0 0 0 0 -0 -0 -0 -0 0 0 0 0 0 0 0 0 0 -0 -0 -0 0 -0 -0 0 -0 0 -0 -0 -0 -0 -0
0 -0 0 -0 -0 -0 -0 -0 0 0 0 0 0 0 -0 0 0 0 -0 -0 0 -0 0 0 -0 0 0 -0 0 0 0 0 -0 -0 -0 -0 -0 0 -0 0 0 0 -0 -0 -0
0 0 -0 -0 -0 -0 -0 0 0 0 0 0 -0 0 -0 -0 -0 0 -0 0 0 0 -0 0 0 0 0 0 -0 0 0 0 0 -0 0 -0 -0 -0 -0 -0 -0 -0 0 0 -0
0 0 0 -0 -0 -0 -0 0 0 0 0 0 -0 -0 0 0 -0 -0 0 0 0 0 0 0 -0 0 0 0 0 0 0 0 0 -0 -0 0 -0 0 -0 -0 0 -0 0 0 -0
0 0 0 0 0 0 0 0 0 0 0 0 0 0 0 0 -0 0 0 0 0 0 0 0 -0 0 0 0 0 0 0 0 0 0 0 -0 -0 0 -0 -0 -0 -0 -0 0 -0
0 0 0 0 0 0 0 0 0 0 0 0 0 0 0 0 0 0 0 0 0 0 0 0 0 -0 0 0 0 0 0 0 0 -0 0 0 -0 0 0 -0 -0 -0 -0 0 0
0 0 0 0 0 0 0 0 0 0 0 0 0 0 0 0 0 0 0 0 0 0 0 0 0 -0 0 0 0 0 0 0 0 0 0 0 0 0 -0 0 0 0 -0 0 0
0 0 0 0 0 0 0 0 0 0 -0 0 0 0 0 0 0 0 0 0 0 0 0 0 0 0 -0 0 0 0 0 0 0 0 0 0 -0 -0 -0 -0 0 0 0 -0 -0
0 0 0 0 0 0 0 0 0 0 0 0 0 0 0 0 0 0 0 0 0 0 0 0 0 0 0 0 0 0 0 0 0 0 0 0 0 0 0 0 0 0 -0 0 -0
0 0 0 0 0 0 0 0 0 0 0 0 0 0 0 -0 0 0 0 0 0 0 0 0 0 0 0 0 0 0 0 0 0 0 0 0 0 0 0 0 0 0 0 0 0
0 0 0 0 0 0 0 0 0 0 0 0 0 0 0 0 0 0 0 0 0 0 0 0 0 0 0 0 0 0 0 0 0 0 0 0 0 0 0 0 0 0 0 0 0
Wind_Speed_500mb
22 23 24 25 25 25 24 22 20 19 17 13 9 7 7 8 8 6 6 12 14 17 20 15 10 11 8 2 4 4 2 15 14 6 10 3 17 11 8 24 15 12 21 49 47
20 21 21 22 23 22 23 23 23 20 17 16 11 8 5 5 1 5 10 12 16 17 16 19 14 15 9 6 5 7 7 7 19 16 8 9 12 16 13 21 19 29 38 51 46
18 18 18 19 19 19 22 23 24 23 19 16 12 9 5 3 10 7 6 15 20 22 14 15 14 13 9 6 4 6 7 13 20 27 15 11 11 3 17 16 25 34 54 51 45
17 17 18 18 18 19 20 21 23 22 20 17 11 9 7 13 6 2 4 18 23 19 14 13 16 16 9 4 5 7 11 9 21 19 16 10 3 5 11 8 12 42 56 51 43
17 18 19 19 17 16 19 23 24 23 18 16 13 9 12 6 12 2 8 21 25 17 15 16 19 10 7 2 4 5 10 17 23 27 22 22 19 8 10 15 37 49 45 42 36
16 18 20 19 14 15 19 22 24 22 18 17 12 8 11 12 13 15 14 24 18 16 14 17 12 5 3 2 7 16 12 17 24 27 17 15 8 3 12 30 38 43 39 36 32
16 18 20 18 14 16 20 23 23 18 18 18 17 21 9 13 17 23 16 12 17 14 15 13 12 12 5 13 18 22 20 17 14 23 11 25 4 9 13 30 37 37 36 33 29
16 18 19 17 15 17 22 25 17 10 15 16 20 21 15 12 13 13 11 10 15 12 12 12 8 7 12 12 14 11 10 10 2 14 16 16 25 13 10 24 38 37 35 33 29
15 17 18 16 14 19 25 19 9 7 12 13 13 8 17 4 2 8 7 4 14 14 12 21 6 8 15 22 18 11 2 10 10 7 15 5 6 29 20 16 40 38 37 35 31
15 16 18 14 12 17 29 12 8 7 8 8 12 7 9 12 6 12 10 10 12 21 16 18 15 17 13 18 16 18 11 16 15 7 28 11 12 8 30 17 40 42 38 36 35
14 15 15 11 7 13 29 14 10 5 12 9 8 9 12 10 12 15 12 14 20 21 17 22 18 23 24 9 9 3 15 19 20 17 11 11 17 11 23 27 36 42 44 42 37
15 14 12 6 3 8 16 12 13 9 2 4 2 2 6 8 21 18 15 9 16 17 13 17 25 12 5 11 6 8 7 20 17 8 5 16 13 19 31 24 41 42 43 40 40
15 13 9 2 1 6 7 13 25 13 11 9 4 5 11 12 14 18 14 11 12 16 21 20 11 14 18 18 17 14 8 11 7 14 7 5 15 16 12 28 41 42 44 45 41
16 12 8 1 2 8 3 21 26 8 9 13 11 10 12 11 13 9 7 2 9 8 11 9 13 19 16 19 18 23 11 8 14 17 10 6 3 2 23 30 43 51 42 44 47
17 12 8 9 6 4 11 20 20 5 3 5 11 6 9 5 22 13 9 9 9 14 17 14 20 17 17 22 13 10 7 12 10 6 11 3 9 15 14 20 35 50 50 44 50
17 12 9 9 13 13 12 21 10 13 7 6 6 9 15 11 9 17 14 5 4 8 11 2 5 10 7 5 18 7 12 11 12 11 17 2 13 4 15 27 36 46 62 50 47
17 15 12 11 9 10 13 9 13 5 5 5 2 9 6 14 13 12 14 14 7 14 13 14 21 11 14 13 18 26 25 13 15 14 7 6 12 10 1 15 34 53 65 67 52
17 13 12 14 15 12 8 13 8 3 3 6 2 11 6 7 8 9 11 13 6 12 5 7 21 24 21 23 16 28 29 15 14 8 5 8 7 8 9 13 33 28 55 63 64
11 7 11 14 13 13 15 16 2 4 1 3 12 13 13 11 4 9 4 7 8 11 14 6 8 10 10 10 21 21 18 22 17 11 10 7 11 18 4 15 19 21 41 53 67
8 6 10 14 13 11 15 5 8 2 2 7 8 6 9 9 13 11 9 6 4 8 12 7 10 12 16 14 19 23 12 18 18 9 10 10 7 12 13 7 17 18 27 53 73
3 11 10 19 16 14 16 8 10 10 8 6 6 9 4 5 8 5 5 10 1 4 9 13 11 19 11 18 12 16 21 23 11 16 1 7 7 12 1 4 6 14 23 32 63
4 14 9 26 19 9 16 10 5 15 11 6 5 5 9 4 8 7 5 8 4 8 9 8 12 16 13 11 10 24 23 29 17 19 10 10 1 9 8 3 16 21 12 19 32
6 5 11 18 14 16 11 15 10 16 19 12 9 7 5 8 8 9 6 8 3 6 11 8 9 16 25 20 16 17 14 23 21 29 19 12 2 9 14 14 8 14 11 11 28
5 8 12 17 15 16 20 22 19 14 20 14 5 8 12 13 10 5 11 8 2 4 4 7 17 17 24 15 17 8 15 13 25 22 23 19 27 11 7 15 13 10 12 20 34
5 2 6 13 23 22 10 5 22 16 19 24 11 18 13 7 9 12 10 10 13 8 7 10 20 13 25 20 18 19 20 14 23 20 17 9 17 10 5 1 7 6 8 6 18
8 7 5 10 6 20 16 23 23 22 23 29 19 22 14 14 10 12 13 8 10 13 6 6 13 13 24 21 21 27 25 19 18 14 22 12 19 3 7 8 3 10 15 13 2
8 9 8 11 16 19 21 27 25 19 22 24 25 16 19 15 6 1 1 3 3 12 10 11 16 12 21 6 17 23 30 27 25 11 19 20 13 8 8 7 7 9 13 13 13
Wind_Direction_500mb
40 40 38 37 35 34 33 28 22 21 16 4 339 315 296 272 254 242 252 225 213 185 184 176 176 185 190 156 108 105 215 169 149 168 130 87 124 91 130 142 146 141 156 154 154
33 31 28 28 30 33 30 25 19 11 3 3 354 338 313 296 283 229 219 203 198 176 166 178 186 183 198 169 171 264 29 121 148 137 181 133 116 118 140 139 131 127 133 150 153
28 22 18 17 19 24 23 20 16 13 7 0 358 0 5 65 124 109 200 190 174 169 162 183 188 205 229 197 128 56 40 114 139 142 175 119 122 117 161 160 164 159 150 154 159
21 18 13 10 8 11 12 10 9 9 11 11 11 18 73 100 134 331 180 182 173 154 161 176 187 206 236 167 90 123 65 118 152 159 140 114 31 83 157 26 166 161 154 156 165
10 10 9 7 2 360 1 4 3 4 8 15 24 45 120 116 54 14 163 166 169 159 171 181 190 204 203 110 142 144 116 123 150 165 144 131 52 336 113 130 137 148 154 159 167
360 1 3 3 359 350 356 356 355 357 9 13 22 86 114 113 68 76 121 157 164 167 175 177 193 208 127 99 312 110 113 114 150 146 124 127 20 295 106 147 149 158 161 164 166
353 356 359 358 351 351 353 351 347 355 13 28 65 107 66 92 98 86 108 145 167 164 175 184 180 224 188 132 135 135 123 103 145 160 154 133 286 207 135 164 161 169 171 170 170
351 354 355 353 353 356 351 346 343 7 19 56 83 86 81 108 100 88 107 103 160 175 170 195 207 227 235 128 161 198 179 222 66 171 138 162 208 227 188 181 174 174 175 176 177
349 354 351 355 0 356 351 351 17 42 17 57 81 75 93 90 120 184 142 139 162 170 184 176 200 234 179 205 187 196 202 124 114 46 135 159 173 224 214 218 190 184 180 180 182
346 352 349 360 9 4 1 26 59 37 70 52 78 178 114 78 125 151 144 130 149 156 154 186 211 204 214 225 255 129 141 85 125 84 99 196 229 228 224 235 212 192 186 186 188
340 351 351 2 19 14 16 30 3 63 29 13 40 63 111 97 107 148 143 127 140 175 176 194 213 208 197 51 36 82 85 88 101 149 114 162 185 224 195 197 251 209 194 192 193
337 348 350 11 45 18 19 35 22 317 317 55 115 200 217 176 125 147 152 180 185 173 167 181 223 115 195 179 187 173 133 99 106 144 210 174 155 186 193 207 225 229 198 206 193
330 341 345 10 278 353 11 7 357 353 255 118 145 95 116 170 121 138 179 148 169 170 200 209 137 155 196 190 217 212 252 156 75 160 149 156 163 169 204 199 224 233 225 206 200
321 329 329 249 304 314 317 345 352 345 212 105 153 128 152 158 114 135 178 275 190 145 196 220 132 200 208 221 231 248 176 182 156 237 23 325 290 245 175 200 213 215 221 218 209
314 312 301 217 238 307 279 335 343 298 260 80 97 142 156 266 141 154 189 211 183 155 236 112 186 192 220 234 219 298 162 207 223 267 260 132 258 129 165 201 211 220 222 226 210
306 295 280 243 248 265 300 327 320 232 100 115 135 172 182 159 124 144 179 184 153 208 216 216 158 240 290 176 233 148 168 172 231 271 244 137 289 180 172 205 193 221 221 225 224
299 284 247 222 213 243 297 306 237 298 160 88 38 208 172 138 135 181 182 185 241 222 181 166 195 171 222 181 174 198 186 195 222 204 296 126 264 43 339 191 188 191 216 221 216
298 268 233 223 221 241 279 240 260 84 173 110 111 170 181 170 124 153 167 169 180 284 264 256 177 189 184 232 190 213 227 259 247 233 227 141 242 78 267 262 192 214 209 211 216
296 244 228 225 218 215 238 233 171 160 80 247 176 220 144 154 254 196 16 67 57 350 332 278 180 167 194 193 238 170 232 264 278 171 280 132 241 245 203 179 180 212 195 208 208
286 214 211 201 186 179 241 272 142 82 270 234 241 262 201 136 206 227 188 93 125 15 320 64 262 169 131 221 238 263 274 213 232 222 227 102 286 292 192 97 153 204 247 202 203
262 223 228 192 179 221 227 180 169 167 223 263 197 196 236 182 278 200 115 118 355 90 313 309 268 150 186 210 225 184 231 246 127 309 138 216 77 18 44 9 174 209 237 200 200
240 230 196 171 210 222 217 196 161 178 197 189 276 293 257 199 224 240 257 17 43 331 300 34 296 272 237 77 306 286 279 221 236 234 230 327 244 83 59 70 193 166 130 200 213
290 253 189 179 223 207 169 185 216 203 201 194 210 269 229 225 242 243 197 104 68 291 1 14 252 264 236 178 200 240 209 260 275 286 260 277 133 106 100 94 70 150 89 336 263
273 211 181 212 261 276 190 204 210 210 234 210 170 209 205 210 212 235 230 151 177 341 9 284 279 277 290 359 336 219 213 245 253 246 250 216 261 144 121 119 108 111 141 214 237
260 170 323 196 209 223 227 217 214 192 218 201 196 219 207 218 221 230 235 194 195 153 216 276 274 291 283 285 277 273 282 240 256 263 283 21 263 277 207 104 58 38 48 179 226
302 313 242 273 230 217 187 217 233 211 192 195 223 200 212 244 276 309 252 228 265 170 236 249 282 288 280 264 266 259 241 247 264 278 270 257 275 36 192 189 77 27 15 16 297
325 311 287 175 207 219 213 231 226 226 213 230 212 193 211 228 283 2 290 335 17 283 280 286 286 268 279 30 278 252 248 237 257 273 283 268 23 164 182 182 46 34 35 10 18
Wind_Speed_850mb
22 23 24 25 25 25 24 22 20 19 17 13 9 7 7 8 8 6 6 12 14 17 20 15 10 11 8 2 4 4 2 15 14 6 10 3 17 11 8 24 15 12 21 49 47
20 21 21 22 23 22 23 23 23 20 17 16 11 8 5 5 1 5 10 12 16 17 16 19 14 15 9 6 5 7 7 7 19 16 8 9 12 16 13 21 19 29 38 51 46
18 18 18 19 19 19 22 23 24 23 19 16 12 9 5 3 10 7 6 15 20 22 14 15 14 13 9 6 4 6 7 13 20 27 15 11 11 3 17 16 25 34 54 51 45
17 17 18 18 18 19 20 21 23 22 20 17 11 9 7 13 6 2 4 18 23 19 14 13 16 16 9 4 5 7 11 9 21 19 16 10 3 5 11 8 12 42 56 51 43
17 18 19 19 17 16 19 23 24 23 18 16 13 9 12 6 12 2 8 21 25 17 15 16 19 10 7 2 4 5 10 17 23 27 22 22 19 8 10 15 37 49 45 42 36
16 18 20 19 14 15 19 22 24 22 18 17 12 8 11 12 13 15 14 24 18 16 14 17 12 5 3 2 7 16 12 17 24 27 17 15 8 3 12 30 38 43 39 36 32
16 18 20 18 14 16 20 23 23 18 18 18 17 21 9 13 17 23 16 12 17 14 15 13 12 12 5 13 18 22 20 17 14 23 11 25 4 9 13 30 37 37 36 33 29
16 18 19 17 15 17 22 25 17 10 15 16 20 21 15 12 13 13 11 10 15 12 12 12 8 7 12 12 14 11 10 10 2 14 16 16 25 13 10 24 38 37 35 33 29
15 17 18 16 14 19 25 19 9 7 12 13 13 8 17 4 2 8 7 4 14 14 12 21 6 8 15 22 18 11 2 10 10 7 15 5 6 29 20 16 40 38 37 35 31
15 16 18 14 12 17 29 12 8 7 8 8 12 7 9 12 6 12 10 10 12 21 16 18 15 17 13 18 16 18 11 16 15 7 28 11 12 8 30 17 40 42 38 36 35
14 15 15 11 7 13 29 14 10 5 12 9 8 9 12 10 12 15 12 14 20 21 17 22 18 23 24 9 9 3 15 19 20 17 11 11 17 11 23 27 36 42 44 42 37
15 14 12 6 3 8 16 12 13 9 2 4 2 2 6 8 21 18 15 9 16 17 13 17 25 12 5 11 6 8 7 20 17 8 5 16 13 19 31 24 41 42 43 40 40
15 13 9 2 1 6 7 13 25 13 11 9 4 5 11 12 14 18 14 11 12 16 21 20 11 14 18 18 17 14 8 11 7 14 7 5 15 16 12 28 41 42 44 45 41
16 12 8 1 2 8 3 21 26 8 9 13 11 10 12 11 13 9 7 2 9 8 11 9 13 19 16 19 18 23 11 8 14 17 10 6 3 2 23 30 43 51 42 44 47
17 12 8 9 6 4 11 20 20 5 3 5 11 6 9 5 22 13 9 9 9 14 17 14 20 17 17 22 13 10 7 12 10 6 11 3 9 15 14 20 35 50 50 44 50
17 12 9 9 13 13 12 21 10 13 7 6 6 9 15 11 9 17 14 5 4 8 11 2 5 10 7 5 18 7 12 11 12 11 17 2 13 4 15 27 36 46 62 50 47
17 15 12 11 9 10 13 9 13 5 5 5 2 9 6 14 13 12 14 14 7 14 13 14 21 11 14 13 18 26 25 13 15 14 7 6 12 10 1 15 34 53 65 67 52
17 13 12 14 15 12 8 13 8 3 3 6 2 11 6 7 8 9 11 13 6 12 5 7 21 24 21 23 16 28 29 15 14 8 5 8 7 8 9 13 33 28 55 63 64
11 7 11 14 13 13 15 16 2 4 1 3 12 13 13 11 4 9 4 7 8 11 14 6 8 10 10 10 21 21 18 22 17 11 10 7 11 18 4 15 19 21 41 53 67
8 6 10 14 13 11 15 5 8 2 2 7 8 6 9 9 13 11 9 6 4 8 12 7 10 12 16 14 19 23 12 18 18 9 10 10 7 12 13 7 17 18 27 53 73
3 11 10 19 16 14 16 8 10 10 8 6 6 9 4 5 8 5 5 10 1 4 9 13 11 19 11 18 12 16 21 23 11 16 1 7 7 12 1 4 6 14 23 32 63
4 14 9 26 19 9 16 10 5 15 11 6 5 5 9 4 8 7 5 8 4 8 9 8 12 16 13 11 10 24 23 29 17 19 10 10 1 9 8 3 16 21 12 19 32
6 5 11 18 14 16 11 15 10 16 19 12 9 7 5 8 8 9 6 8 3 6 11 8 9 16 25 20 16 17 14 23 21 29 19 12 2 9 14 14 8 14 11 11 28
5 8 12 17 15 16 20 22 19 14 20 14 5 8 12 13 10 5 11 8 2 4 4 7 17 17 24 15 17 8 15 13 25 22 23 19 27 11 7 15 13 10 12 20 34
5 2 6 13 23 22 10 5 22 16 19 24 11 18 13 7 9 12 10 10 13 8 7 10 20 13 25 20 18 19 20 14 23 20 17 9 17 10 5 1 7 6 8 6 18
8 7 5 10 6 20 16 23 23 22 23 29 19 22 14 14 10 12 13 8 10 13 6 6 13 13 24 21 21 27 25 19 18 14 22 12 19 3 7 8 3 10 15 13 2
8 9 8 11 16 19 21 27 25 19 22 24 25 16 19 15 6 1 1 3 3 12 10 11 16 12 21 6 17 23 30 27 25 11 19 20 13 8 8 7 7 9 13 13 13
Wind_Direction_850mb
40 40 38 37 35 34 33 28 22 21 16 4 339 315 296 272 254 242 252 225 213 185 184 176 176 185 190 156 108 105 215 169 149 168 130 87 124 91 130 142 146 141 156 154 154
33 31 28 28 30 33 30 25 19 11 3 3 354 338 313 296 283 229 219 203 198 176 166 178 186 183 198 169 171 264 29 121 148 137 181 133 116 118 140 139 131 127 133 150 153
28 22 18 17 19 24 23 20 16 13 7 0 358 0 5 65 124 109 200 190 174 169 162 183 188 205 229 197 128 56 40 114 139 142 175 119 122 117 161 160 164 159 150 154 159
21 18 13 10 8 11 12 10 9 9 11 11 11 18 73 100 134 331 180 182 173 154 161 176 187 206 236 167 90 123 65 118 152 159 140 114 31 83 157 26 166 161 154 156 165
10 10 9 7 2 360 1 4 3 4 8 15 24 45 120 116 54 14 163 166 169 159 171 181 190 204 203 110 142 144 116 123 150 165 144 131 52 336 113 130 137 148 154 159 167
360 1 3 3 359 350 356 356 355 357 9 13 22 86 114 113 68 76 121 157 164 167 175 177 193 208 127 99 312 110 113 114 150 146 124 127 20 295 106 147 149 158 161 164 166
353 356 359 358 351 351 353 351 347 355 13 28 65 107 66 92 98 86 108 145 167 164 175 184 180 224 188 132 135 135 123 103 145 160 154 133 286 207 135 164 161 169 171 170 170
351 354 355 353 353 356 351 346 343 7 19 56 83 86 81 108 100 88 107 103 160 175 170 195 207 227 235 128 161 198 179 222 66 171 138 162 208 227 188 181 174 174 175 176 177
349 354 351 355 0 356 351 351 17 42 17 57 81 75 93 90 120 184 142 139 162 170 184 176 200 234 179 205 187 196 202 124 114 46 135 159 173 224 214 218 190 184 180 180 182
346 352 349 360 9 4 1 26 59 37 70 52 78 178 114 78 125 151 144 130 149 156 154 186 211 204 214 225 255 129 141 85 125 84 99 196 229 228 224 235 212 192 186 186 188
340 351 351 2 19 14 16 30 3 63 29 13 40 63 111 97 107 148 143 127 140 175 176 194 213 208 197 51 36 82 85 88 101 149 114 162 185 224 195 197 251 209 194 192 193
337 348 350 11 45 18 19 35 22 317 317 55 115 200 217 176 125 147 152 180 185 173 167 181 223 115 195 179 187 173 133 99 106 144 210 174 155 186 193 207 225 229 198 206 193
330 341 345 10 278 353 11 7 357 353 255 118 145 95 116 170 121 138 179 148 169 170 200 209 137 155 196 190 217 212 252 156 75 160 149 156 163 169 204 199 224 233 225 206 200
321 329 329 249 304 314 317 345 352 345 212 105 153 128 152 158 114 135 178 275 190 145 196 220 132 200 208 221 231 248 176 182 156 237 23 325 290 245 175 200 213 215 221 218 209
314 312 301 217 238 307 279 335 343 298 260 80 97 142 156 266 141 154 189 211 183 155 236 112 186 192 220 234 219 298 162 207 223 267 260 132 258 129 165 201 211 220 222 226 210
306 295 280 243 248 265 300 327 320 232 100 115 135 172 182 159 124 144 179 184 153 208 216 216 158 240 290 176 233 148 168 172 231 271 244 137 289 180 172 205 193 221 221 225 224
299 284 247 222 213 243 297 306 237 298 160 88 38 208 172 138 135 181 182 185 241 222 181 166 195 171 222 181 174 198 186 195 222 204 296 126 264 43 339 191 188 191 216 221 216
298 268 233 223 221 241 279 240 260 84 173 110 111 170 181 170 124 153 167 169 180 284 264 256 177 189 184 232 190 213 227 259 247 233 227 141 242 78 267 262 192 214 209 211 216
296 244 228 225 218 215 238 233 171 160 80 247 176 220 144 154 254 196 16 67 57 350 332 278 180 167 194 193 238 170 232 264 278 171 280 132 241 245 203 179 180 212 195 208 208
286 214 211 201 186 179 241 272 142 82 270 234 241 262 201 136 206 227 188 93 125 15 320 64 262 169 131 221 238 263 274 213 232 222 227 102 286 292 192 97 153 204 247 202 203
262 223 228 192 179 221 227 180 169 167 223 263 197 196 236 182 278 200 115 118 355 90 313 309 268 150 186 210 225 184 231 246 127 309 138 216 77 18 44 9 174 209 237 200 200
240 230 196 171 210 222 217 196 161 178 197 189 276 293 257 199 224 240 257 17 43 331 300 34 296 272 237 77 306 286 279 221 236 234 230 327 244 83 59 70 193 166 130 200 213
290 253 189 179 223 207 169 185 216 203 201 194 210 269 229 225 242 243 197 104 68 291 1 14 252 264 236 178 200 240 209 260 275 286 260 277 133 106 100 94 70 150 89 336 263
273 211 181 212 261 276 190 204 210 210 234 210 170 209 205 210 212 235 230 151 177 341 9 284 279 277 290 359 336 219 213 245 253 246 250 216 261 144 121 119 108 111 141 214 237
260 170 323 196 209 223 227 217 214 192 218 201 196 219 207 218 221 230 235 194 195 153 216 276 274 291 283 285 277 273 282 240 256 263 283 21 263 277 207 104 58 38 48 179 226
302 313 242 273 230 217 187 217 233 211 192 195 223 200 212 244 276 309 252 228 265 170 236 249 282 288 280 264 266 259 241 247 264 278 270 257 275 36 192 189 77 27 15 16 297
325 311 287 175 207 219 213 231 226 226 213 230 212 193 211 228 283 2 290 335 17 283 280 286 286 268 279 30 278 252 248 237 257 273 283 268 23 164 182 182 46 34 35 10 18